Back to catalog

STARLINK-38298

AliveCommunicationsSSO
NORAD 100324·PAYLOAD·🇺🇸 United States

Launched Aug 12, 2026 from Vandenberg Space Force Base

Loading…

Next Passes (next 24 hours)

TLE

FreshSource: Space-Track

Epoch: Sep 14, 2026, 14:58 UTC

1 A0324U 26184Z   26257.62414530  .00004806  00000-0  13515-3 0  9993
2 A0324  97.2835 122.8834 0001440 111.1184 249.0214 15.36971431  6467

Track STARLINK-38298 in real time with AllMySat

Download on the App Store